Wind_Speed
29 31 31 32 33 34 32 32 31 29 27 29 29 29 27 25 23 26 24 24 22 16 10 7 6 4 4 7 5 14 17 16 10 12 14 4 6 2 4 3 3 4 1 2 2 2 3
28 29 30 31 30 31 31 30 31 30 29 29 28 27 25 25 24 24 24 22 17 14 17 13 9 8 8 8 11 12 14 17 17 15 18 10 3 2 5 4 4 1 1 3 2 1 1
27 27 28 29 29 28 27 27 28 28 27 26 26 24 24 23 21 23 23 19 14 15 15 12 6 19 21 6 11 9 11 16 16 13 5 10 3 5 2 3 3 1 4 3 2 2 1
26 25 26 26 26 26 26 25 26 25 26 28 27 26 24 22 23 21 19 14 10 8 8 8 15 13 5 9 13 12 11 12 13 11 7 8 8 7 4 0 6 4 5 3 4 7 3
25 25 23 23 24 24 24 23 24 23 24 25 25 23 21 21 20 19 15 8 6 13 13 7 8 7 3 7 10 14 11 7 8 9 10 7 6 4 6 4 4 7 1 1 4 5 5
23 24 23 21 20 20 21 21 21 21 18 19 21 22 20 19 21 19 18 23 18 5 7 5 9 5 5 4 6 9 7 9 5 5 6 8 6 4 5 5 3 1 2 3 4 5 5
21 22 23 21 19 17 17 18 19 19 17 14 14 18 15 9 6 3 3 2 6 7 17 5 1 5 2 7 7 13 11 5 5 7 4 5 7 3 1 2 3 3 0 3 5 1 5
19 20 22 21 20 18 14 13 15 15 15 13 9 9 12 14 6 3 4 7 3 3 6 10 5 4 4 4 6 17 13 5 6 4 3 7 3 1 0 3 3 3 2 4 6 2 4
18 19 20 20 18 18 15 12 12 12 11 10 9 8 10 10 16 22 20 9 5 2 6 4 3 4 4 7 4 9 7 3 5 6 5 5 2 1 3 3 4 3 1 3 3 8 1
18 19 19 19 18 17 15 13 12 11 12 9 7 7 3 3 5 7 6 5 2 2 5 10 7 5 4 2 5 4 6 2 6 3 2 3 1 1 2 2 3 2 1 2 4 5 3
18 18 19 19 19 17 14 12 11 11 12 10 6 5 8 4 7 4 2 3 1 1 6 6 5 4 6 5 2 7 6 5 3 2 4 2 2 1 0 0 3 4 2 2 2 2 5
18 18 19 19 19 18 16 11 8 8 9 9 7 4 2 4 7 5 4 1 2 6 1 4 4 6 4 6 5 6 5 7 2 3 3 1 1 2 2 3 2 2 3 5 2 3 2
19 19 18 18 19 19 18 13 8 6 7 8 8 8 5 5 2 6 5 2 5 6 3 4 2 4 1 4 4 6 5 6 3 4 4 5 1 1 1 2 3 5 5 4 5 2 5
19 20 20 20 20 20 19 16 9 5 4 5 6 7 10 8 5 5 2 5 8 2 3 1 3 3 3 6 4 6 2 3 4 4 3 3 6 2 1 2 4 2 5 4 5 2 5
17 18 20 21 21 21 20 20 14 5 2 3 2 3 4 7 7 5 5 6 6 5 3 5 2 5 3 0 1 4 3 4 3 2 4 2 5 2 1 1 4 2 0 3 3 2 3
15 16 18 20 21 22 22 21 17 9 3 2 1 2 4 8 6 1 5 3 3 2 3 2 3 2 0 4 4 4 1 2 2 1 2 3 4 1 1 2 2 3 4 2 1 3 5
14 15 16 18 20 21 23 23 20 14 4 1 1 3 5 8 4 5 4 3 2 1 1 2 3 3 2 1 1 1 2 3 2 3 3 3 3 4 1 5 8 5 2 3 2 2 3
14 15 16 17 18 20 22 23 23 19 6 2 2 2 6 7 4 2 2 2 3 3 1 1 2 1 2 3 2 1 3 6 5 5 3 3 3 4 9 2 4 4 6 5 4 5 3
15 15 17 18 18 19 21 23 23 22 13 1 2 1 4 3 3 2 2 1 1 2 2 3 2 4 2 3 0 4 4 3 6 5 5 5 1 4 7 4 2 4 5 5 3 3 6
18 17 17 16 18 19 19 21 23 22 13 3 3 3 4 5 1 5 2 1 1 1 1 2 2 1 1 2 4 2 3 3 6 5 5 5 3 6 6 4 3 5 4 6 5 3 4
14 15 17 18 18 17 18 20 21 22 13 2 4 0 3 2 4 2 2 1 2 2 1 2 1 4 5 2 2 4 4 1 2 5 4 3 5 5 12 17 15 18 17 12 11 13 8
13 14 15 16 18 17 17 18 19 20 12 6 2 2 2 1 2 1 1 4 4 2 5 3 3 2 5 5 7 6 4 4 5 1 5 2 4 3 8 8 8 14 17 19 21 23 21
12 13 13 14 15 17 17 17 17 19 11 5 3 1 3 2 1 2 3 3 4 3 3 4 6 2 4 9 6 7 6 4 5 8 7 5 1 4 6 5 13 8 9 18 8 6 19
12 13 13 13 13 13 15 15 15 15 14 6 4 2 2 2 1 4 2 4 4 4 3 2 5 5 3 1 3 1 1 5 5 6 6 6 3 2 5 9 4 4 3 6 16 10 19
13 13 14 14 13 12 12 12 12 12 10 8 4 2 2 3 2 5 4 4 2 2 3 3 3 2 2 4 3 4 2 2 2 4 6 3 4 3 2 3 10 7 2 7 8 9 19
13 13 14 15 12 11 12 11 10 9 8 7 4 2 3 2 4 2 2 2 2 2 3 2 1 1 4 2 1 2 4 2 2 2 4 4 2 3 1 1 5 3 1 3 4 5 7
12 13 13 15 13 10 9 10 10 9 8 5 3 2 1 1 4 3 4 3 3 2 2 1 2 1 2 2 2 4 4 4 4 6 6 4 3 11 8 5 10 13 5 1 1 6 2
14 15 16 15 13 11 9 8 8 9 9 8 4 5 3 2 5 6 3 3 1 2 3 3 1 0 2 3 3 3 3 4 2 4 6 8 8 5 5 6 10 8 5 9 6 3 2
15 16 16 16 15 15 13 11 10 10 9 12 5 9 11 4 4 8 12 18 14 7 3 3 2 3 4 2 2 2 3 2 4 4 0 4 7 6 11 9 4 9 5 7 2 4 7
Wind_Direction
45 43 42 44 47 52 58 63 82 79 78 81 85 94 101 104 112 119 122 122 120 94 57 54 51 112 97 49 44 359 13 12 33 64 55 56 55 53 89 83 62 74 12 51 32 322 276
45 47 46 46 46 51 55 61 69 75 77 81 84 92 97 104 109 119 125 119 106 88 73 73 87 99 69 74 356 14 18 40 45 57 48 46 94 83 86 54 59 35 344 308 333 243 3
44 43 50 51 50 49 55 61 67 69 75 77 84 91 99 101 109 120 118 113 103 81 68 64 49 74 60 69 17 19 21 32 39 54 54 40 48 75 91 81 346 23 11 354 6 317 64
50 46 42 50 54 56 57 63 66 64 69 77 85 89 90 94 107 116 119 116 105 60 55 61 74 78 86 17 28 45 27 47 46 53 57 39 80 92 56 145 24 43 45 27 356 10 9
46 47 47 45 46 51 58 62 68 74 81 71 72 71 77 94 103 107 103 81 87 80 65 42 39 82 44 353 9 12 20 9 13 53 46 55 58 71 26 61 20 14 210 337 327 19 344
44 42 45 45 52 55 59 64 67 69 73 75 74 67 77 95 109 107 98 88 76 63 33 55 43 54 13 324 344 352 20 24 28 353 19 34 45 64 34 52 226 311 359 320 267 332 358
42 42 44 44 46 64 65 63 65 66 67 76 80 58 64 82 96 80 60 22 23 10 36 70 337 99 31 337 15 15 0 355 31 49 54 11 63 79 79 73 120 111 21 287 271 307 336
41 40 43 44 43 48 65 58 50 53 60 68 78 57 46 52 65 64 67 67 41 130 64 28 38 58 50 359 23 358 12 61 45 59 6 25 80 247 310 63 75 52 328 301 285 279 336
38 40 39 46 50 47 51 57 56 53 48 55 66 71 85 63 76 80 78 65 53 82 85 2 7 30 349 25 36 343 22 21 62 47 28 110 156 2 63 37 36 349 305 334 257 320 290
38 39 40 41 41 48 58 60 60 52 48 48 67 80 80 37 69 62 52 43 41 129 80 335 351 6 21 58 44 356 15 75 36 121 70 72 329 69 72 67 107 329 325 332 333 32 286
46 40 37 38 37 39 51 57 60 56 45 44 49 53 48 86 112 68 57 8 98 90 60 301 328 323 13 76 285 352 15 27 80 109 90 243 155 123 348 280 133 233 342 295 117 265 28
42 40 38 35 31 33 37 42 47 45 49 48 48 39 55 41 64 61 4 36 119 43 294 1 347 0 37 12 20 327 24 40 45 63 15 92 351 163 204 77 63 44 26 20 0 76 348
44 41 42 38 36 29 29 34 34 37 44 54 53 54 70 48 39 6 2 52 37 92 8 301 343 28 92 357 26 25 31 19 54 49 355 344 225 232 149 124 30 65 51 330 346 335 234
41 42 41 37 36 34 28 29 32 36 43 45 53 67 67 62 25 8 33 52 73 224 213 144 23 20 64 6 34 357 68 30 34 78 84 80 322 175 213 182 175 153 132 152 249 282 284
36 38 37 38 34 31 31 28 23 31 59 24 61 48 43 11 356 352 76 55 179 203 167 148 66 72 347 336 179 57 357 178 206 92 125 88 282 279 245 114 120 247 99 182 102 238 280
30 31 34 34 33 30 27 27 28 18 11 61 106 53 20 351 346 52 73 126 124 189 118 115 124 132 159 294 40 52 19 245 163 105 127 184 338 291 44 80 40 140 157 55 38 304 295
29 30 27 27 29 28 26 23 26 25 26 34 63 57 355 352 354 49 102 202 162 109 137 118 167 137 192 216 150 323 242 286 186 135 90 137 115 283 143 195 181 170 202 184 191 214 209
19 19 25 26 22 23 23 21 19 22 32 21 77 48 347 352 49 20 92 134 153 155 67 89 121 129 171 173 174 225 232 209 176 150 145 205 155 268 228 214 192 182 189 167 136 254 236
21 16 14 15 20 21 17 17 16 12 15 50 91 259 353 5 85 48 309 25 83 141 194 154 180 190 174 199 248 201 205 233 174 152 168 174 278 326 338 5 38 229 205 185 132 111 220
21 20 18 15 11 13 16 14 12 11 10 52 77 35 339 49 64 117 131 152 266 313 271 195 198 118 133 217 224 230 236 206 182 190 163 155 194 208 214 210 170 238 230 209 168 171 210
10 12 14 12 10 11 10 13 12 9 11 47 37 148 182 336 359 69 97 149 167 253 259 188 285 216 180 224 216 217 224 164 180 208 139 155 245 218 255 262 257 257 251 236 219 224 214
2 5 4 4 5 4 7 11 14 12 13 64 92 102 11 141 315 28 348 202 201 259 162 234 218 193 201 213 204 206 166 185 210 126 164 177 274 305 283 260 247 254 247 236 238 242 252
348 354 358 357 358 355 -0 7 11 19 22 65 46 79 111 335 64 89 229 201 214 157 216 195 193 184 234 242 234 235 216 205 189 162 188 168 217 351 270 311 303 278 238 211 206 208 221
335 343 348 348 349 347 352 -0 7 17 31 46 50 40 60 281 180 208 208 195 226 228 244 210 167 163 228 162 311 70 184 238 193 208 172 148 162 202 284 327 331 239 206 178 206 231 217
322 327 334 338 340 341 343 352 354 6 19 30 29 33 105 290 232 286 231 224 284 296 242 240 243 213 104 44 345 332 334 294 228 217 206 170 140 257 264 275 289 287 152 157 177 282 216
299 308 317 327 326 332 337 340 343 343 352 9 5 41 85 87 252 302 306 198 207 220 321 234 47 74 62 85 75 262 243 245 235 144 61 120 107 163 154 268 258 260 156 126 129 286 208
299 298 303 310 314 312 320 326 331 326 321 328 306 263 110 204 263 169 227 233 129 125 228 276 194 152 71 139 216 214 259 187 216 185 173 153 185 216 224 261 276 251 236 103 290 252 142
292 292 299 299 306 301 282 288 304 308 302 282 270 244 217 224 276 212 243 191 151 201 195 167 50 168 92 183 207 232 220 234 231 183 182 176 163 192 187 231 268 157 82 174 223 275 273
285 286 288 290 297 298 292 271 266 281 287 278 246 261 234 228 268 276 250 249 251 239 173 223 273 170 188 184 211 224 243 226 204 267 137 232 197 181 192 220 247 216 236 235 289 263 269
Height
820 816 813 809 804 801 798 794 790 792 792 791 791 793 796 798 801 804 808 811 814 816 817 817 817 816 817 825 834 830 827 823 820 816 817 818 824 827 834 834 834 837 840 838 838 838 837
825 823 820 816 812 808 806 804 802 800 799 800 801 801 803 804 806 810 813 815 818 819 819 818 818 819 820 835 834 832 830 825 822 820 822 822 827 828 834 840 840 842 842 842 840 839 839
829 827 826 824 820 815 813 810 809 808 807 806 806 807 808 810 813 815 817 820 821 821 822 821 821 820 826 839 836 834 831 828 827 826 827 828 828 828 835 841 842 843 843 842 842 841 842
837 832 828 828 827 825 821 818 816 813 813 814 814 814 815 815 816 819 820 822 824 823 822 823 823 822 837 838 837 833 832 831 830 830 831 831 829 832 840 842 848 850 853 853 846 847 845
841 838 835 831 830 828 827 825 823 822 822 821 820 820 820 820 821 823 825 826 826 824 823 824 824 826 842 839 837 836 835 835 833 833 833 832 832 844 847 855 865 867 870 855 851 855 853
845 841 839 837 835 834 831 829 828 827 826 825 825 825 825 825 826 828 828 828 828 826 826 828 830 835 843 845 842 840 838 837 837 836 837 840 849 859 867 878 887 865 861 863 861 859 858
847 845 843 841 837 836 836 835 833 831 831 831 830 829 829 830 830 830 829 828 831 835 835 845 846 847 845 845 844 842 840 839 840 845 854 856 870 883 864 862 864 865 868 871 868 861 861
851 848 845 843 841 839 837 836 836 835 834 833 833 833 833 831 830 830 830 834 842 843 849 847 847 847 847 847 847 845 843 846 849 859 856 870 875 865 862 861 864 866 869 875 868 860 864
853 851 849 847 845 843 840 839 838 838 837 836 835 836 836 835 834 833 835 841 844 844 853 853 851 850 850 849 855 853 849 851 857 864 869 874 867 863 863 866 871 871 871 873 879 869 863
856 855 852 850 848 846 844 842 841 840 840 839 839 838 838 837 839 840 843 845 845 845 878 865 856 855 853 852 858 856 855 856 860 866 865 868 865 864 866 866 875 885 869 868 871 885 896
860 857 854 852 851 849 847 846 844 843 842 841 841 841 839 839 840 843 847 845 845 846 901 864 859 854 854 858 860 858 858 856 863 864 868 868 868 867 867 865 868 876 869 870 883 880 904
863 860 857 855 853 851 849 848 847 846 844 843 842 842 842 841 842 845 844 844 845 877 900 871 862 863 861 862 863 863 862 860 862 864 866 868 866 866 865 868 870 875 878 882 879 880 923
866 863 861 858 856 854 851 849 848 847 847 845 844 843 843 843 845 845 844 844 878 900 872 876 872 870 870 872 869 874 872 880 884 886 896 878 867 866 866 870 875 884 906 915 907 902 882
869 867 864 861 858 856 853 851 849 848 848 847 846 845 845 845 845 845 845 862 892 868 871 870 874 872 873 877 878 878 877 895 880 886 907 910 885 880 868 869 881 899 905 912 908 923 896
872 870 867 864 861 858 855 853 851 848 848 848 847 847 847 847 846 845 852 891 877 871 864 872 876 895 878 874 883 893 886 895 883 882 894 907 890 871 869 869 876 890 894 889 908 897 883
875 872 870 867 864 861 857 854 851 849 848 847 848 848 849 848 846 846 863 872 869 867 866 867 874 877 898 890 894 894 903 878 877 878 883 895 905 874 870 870 874 882 883 896 898 882 907
876 874 872 869 866 863 860 856 852 850 849 848 848 851 848 847 846 853 881 880 868 865 864 867 871 872 872 877 877 891 897 881 875 880 882 889 901 883 872 877 882 874 887 879 891 875 893
878 876 874 871 868 865 862 858 854 851 848 849 849 859 848 847 860 876 872 862 861 865 865 865 866 867 869 870 874 896 892 888 875 877 882 885 898 903 873 862 866 872 874 874 899 902 873
879 877 874 872 869 867 863 860 856 852 849 848 854 856 849 848 875 875 868 863 862 864 864 866 866 866 866 870 877 878 879 870 874 877 882 884 899 909 875 872 867 867 866 864 871 883 874
881 878 875 873 870 868 864 861 858 854 851 850 855 865 857 856 867 867 865 864 865 864 863 863 864 864 867 869 872 870 872 870 874 874 872 877 892 887 887 866 869 865 859 862 864 888 888
882 879 877 874 871 868 866 863 859 855 852 852 859 868 868 877 868 865 865 864 864 865 866 865 866 867 869 870 868 874 870 872 875 872 877 882 890 888 873 865 863 859 854 852 864 850 856
882 880 878 876 873 870 867 864 861 857 854 854 863 865 870 870 869 864 867 864 864 861 866 866 868 863 870 871 867 868 865 870 870 877 881 886 885 881 865 853 855 853 845 845 842 837 832
882 880 878 877 875 873 869 866 864 861 857 859 863 864 864 871 869 868 868 860 860 859 859 860 864 865 868 865 863 863 862 863 864 873 881 886 890 883 881 859 850 840 819 821 823 822 817
881 879 878 877 875 873 871 869 867 864 862 863 865 866 868 866 871 866 860 861 859 861 858 856 861 863 859 858 858 860 863 865 867 868 868 883 883 879 877 863 836 791 799 802 805 796 799
879 878 877 876 875 873 872 870 869 867 866 865 866 867 870 869 869 862 860 860 856 857 860 859 857 858 857 860 864 862 862 859 862 867 870 871 874 875 886 881 833 783 791 800 804 778 775
878 877 876 875 873 873 872 871 869 868 868 867 867 867 868 874 865 859 858 855 859 861 861 857 859 859 860 866 866 855 861 845 853 866 869 873 872 880 882 879 843 780 784 786 787 790 760
875 874 873 873 871 871 870 870 869 868 868 868 868 868 868 870 861 859 861 858 857 860 859 859 857 859 860 867 865 867 856 850 849 857 864 867 872 869 869 860 831 791 787 786 784 767 754
872 872 871 870 868 868 867 867 867 867 867 867 866 867 868 867 859 855 854 855 856 857 854 855 857 861 866 864 863 857 860 848 845 843 853 852 857 862 856 853 839 783 790 788 760 754 752
869 868 868 867 866 864 863 863 864 864 864 864 865 864 865 867 858 853 850 848 848 848 851 854 848 851 850 855 859 851 848 852 842 835 839 835 822 828 829 804 773 776 762 759 759 760 755